Weather History for Kalispell, MT

Change the Weather History Date:

Friday, February 14, 2014

  Actual Average Record
Temperature  
Mean Temperature 33 °F 27 °F  
Max Temperature 38 °F 36 °F 51 °F (1971)
Min Temperature 27 °F 18 °F -23 °F (1936)
Degree Days  
Heating Degree Days 32 38  
Month to date heating degree days 718 544  
Since 1 July heating degree days 5355 5335  
Cooling Degree Days 0 0  
Month to date cooling degree days 0 0  
Year to date cooling degree days 0 0  
Moisture  
Dew Point 28 °F    
Average Humidity 81    
Maximum Humidity 92    
Minimum Humidity 69    
Precipitation  
Precipitation 0.05 in 0.03 in 0.48 in (1910)
Month to date precipitation 0.39 0.47  
Year to date precipitation 1.74 1.80  
Snow  
Snow 1.40 in - - ()
Month to date snowfall 3.1  
Year to date snowfall 18.7  
Since 1 July snowfall 52.2  
Snow Depth T in    
Sea Level Pressure  
Sea Level Pressure 29.82 in    
Wind  
Wind Speed 6 mph (SSE)    
Max Wind Speed 20 mph    
Max Gust Speed 74 mph    
Visibility 7 miles    
Events Snow    
T = Trace of Precipitation, MM = Missing Value Source: NWS Daily Summary

Daily Weather History Graph

Daily Weather History Graph

Search for Another Location

Airport:

Trip Planner

Search our weather history database for the weather conditions in past years. The results will help you decide how hot, cold, wet, or windy it might be!

Date:

Astronomy

Feb. 14, 2014 Rise Set
Actual Time 7:45 AM MST 5:57 PM MST
Civil Twilight 7:13 AM MST 6:29 PM MST
Nautical Twilight 6:36 AM MST 7:06 PM MST
Astronomical Twilight 6:00 AM MST 7:42 PM MST
Moon 6:09 PM MST (2/14) 7:11 AM MST (2/14)
Length of Visible Light 11h 16m
Length of Day
10h 12m
Full, 100% of the Moon is Illuminated
Feb 14
Full
Feb 14
Full
Feb 22
Last Quarter
Mar 1
New
Mar 8
First Quarter

Hourly Weather History & Observations

Time (MST) Temp. Windchill Dew Point Humidity Pressure Visibility Wind Dir Wind Speed Gust Speed Precip Events Conditions
12:55 AM 32.0 °F 25.6 °F 25.0 °F 75% 30.02 in 10.0 mi SSE 6.9 mph - N/A   Clear
1:55 AM 32.0 °F 24.8 °F 25.0 °F 75% 30.02 in 10.0 mi SSE 8.1 mph - N/A   Clear
2:55 AM 33.1 °F 26.1 °F 24.1 °F 70% 30.02 in 10.0 mi SSE 8.1 mph - N/A   Clear
3:55 AM 30.0 °F - 23.0 °F 75% 30.01 in 10.0 mi Calm Calm - N/A   Clear
4:55 AM 28.9 °F 25.2 °F 24.1 °F 82% 30.00 in 10.0 mi WNW 3.5 mph - N/A   Partly Cloudy
5:55 AM 28.0 °F - 24.1 °F 85% 29.99 in 10.0 mi Calm Calm - N/A   Clear
6:55 AM 28.0 °F - 25.0 °F 88% 29.97 in 10.0 mi Calm Calm - N/A   Clear
7:55 AM 28.0 °F - 24.1 °F 85% 29.94 in 10.0 mi Calm Calm - N/A   Overcast
8:55 AM 28.9 °F 25.2 °F 25.0 °F 85% 29.89 in 10.0 mi Variable 3.5 mph - N/A   Overcast
9:45 AM 30.2 °F - 24.8 °F 80% 29.80 in 6.0 mi Calm Calm - 0.00 in Snow Light Snow
9:55 AM 30.0 °F - 25.0 °F 82% 29.87 in 1.5 mi Calm Calm - 0.00 in Snow Light Snow
10:02 AM 30.2 °F - 26.6 °F 86% 29.80 in 1.2 mi Calm Calm - 0.00 in Snow Light Snow
10:10 AM 30.2 °F - 26.6 °F 86% 29.80 in 0.8 mi Calm Calm - 0.01 in Snow Light Snow
10:31 AM 30.2 °F 26.7 °F 26.6 °F 86% 29.78 in 1.0 mi NE 3.5 mph - 0.02 in Snow Light Snow
10:53 AM 30.2 °F 25.4 °F 28.4 °F 93% 29.76 in 1.5 mi East 4.6 mph - 0.03 in Snow Light Snow
10:55 AM 30.0 °F 26.5 °F 28.0 °F 92% 29.83 in 1.2 mi East 3.5 mph - 0.03 in Snow Light Snow
11:02 AM 30.2 °F 26.7 °F 28.4 °F 93% 29.76 in 1.5 mi ESE 3.5 mph - 0.01 in Snow Light Snow
11:14 AM 30.2 °F 26.7 °F 28.4 °F 93% 29.75 in 3.0 mi ESE 3.5 mph - 0.01 in Snow Light Snow
11:42 AM 32.0 °F 24.2 °F 28.4 °F 87% 29.73 in 10.0 mi South 9.2 mph - 0.01 in   Overcast
11:55 AM 32.0 °F 23.6 °F 28.0 °F 85% 29.79 in 6.0 mi SSE 10.4 mph - 0.01 in Snow Light Snow
12:27 PM 33.8 °F 25.3 °F 28.4 °F 81% 29.69 in 2.0 mi SSE 11.5 mph - 0.00 in Snow Light Snow
12:33 PM 32.0 °F 22.5 °F 28.4 °F 87% 29.68 in 1.8 mi SSE 12.7 mph - 0.00 in Snow Light Snow
12:43 PM 32.0 °F 22.5 °F 30.2 °F 93% 29.68 in 2.5 mi SSE 12.7 mph - 0.01 in Snow Light Snow
12:55 PM 33.1 °F 24.9 °F 30.0 °F 89% 29.75 in 1.8 mi SSE 10.4 mph - 0.01 in Snow Light Snow
1:09 PM 33.8 °F 25.8 °F 30.2 °F 87% 29.67 in 3.0 mi South 10.4 mph - 0.00 in Snow Light Snow
1:55 PM 35.1 °F 24.8 °F 30.0 °F 82% 29.70 in 10.0 mi SSE 17.3 mph - 0.00 in   Overcast
2:53 PM 37.4 °F 30.8 °F 32.0 °F 81% 29.66 in 10.0 mi SSE 9.2 mph - 0.00 in   Overcast
2:55 PM 37.0 °F 29.3 °F 32.0 °F 82% 29.72 in 10.0 mi SSE 11.5 mph - 0.00 in   Overcast
3:55 PM 37.0 °F 28.5 °F 32.0 °F 82% 29.73 in 10.0 mi SSE 13.8 mph - N/A   Mostly Cloudy
4:55 PM 37.0 °F 31.0 °F 33.1 °F 86% 29.75 in 10.0 mi SSE 8.1 mph - N/A   Overcast
5:55 PM 36.0 °F 31.1 °F 32.0 °F 86% 29.78 in 10.0 mi ESE 5.8 mph - N/A   Overcast
6:55 PM 36.0 °F 31.1 °F 32.0 °F 86% 29.80 in 10.0 mi SSE 5.8 mph - N/A   Overcast
7:55 PM 35.1 °F - 30.9 °F 85% 29.83 in 10.0 mi Calm Calm - N/A   Overcast
8:55 PM 33.1 °F 23.9 °F 30.9 °F 92% 29.84 in 10.0 mi SSW 12.7 mph - N/A   Overcast
9:55 PM 35.1 °F 28.6 °F 30.9 °F 85% 29.86 in 10.0 mi ESE 8.1 mph - N/A   Clear
10:55 PM 34.0 °F 28.0 °F 28.9 °F 82% 29.88 in 10.0 mi SSE 6.9 mph - N/A   Clear
11:55 PM 28.9 °F 25.2 °F 27.0 °F 92% 29.90 in 10.0 mi SSW 3.5 mph - N/A   Partly Cloudy